WA7ZVY-4 Weather Reports


Display with metric or nautical units.
time (UTC)temp
F
wind
direction
speed
MPH
gust
MPH
rain 1hr
in
rain 24hr
in
rain mn
in
humidity
%
barometer
mb
20200118182515 47 232 15.0 25.0 0.00 0.21 0.12 100 1023.7
20200118182008 47 184 18.0 25.0 0.00 0.21 0.12 100 1023.8
20200118180954 47 221 7.0 20.0 0.00 0.21 0.12 100 1023.7
20200118180447 47 210 8.0 20.0 0.01 0.21 0.12 100 1023.7
20200118175940 47 215 13.0 17.0 0.01 0.21 0.12 99 1023.6
20200118175433 47 208 7.0 18.0 0.01 0.21 0.12 99 1023.5
20200118174926 47 217 9.0 18.0 0.01 0.21 0.12 99 1023.5
20200118174419 47 215 7.0 18.0 0.01 0.21 0.12 99 1023.5
20200118173912 47 218 5.0 18.0 0.01 0.21 0.12 99 1023.4
20200118173405 47 218 5.0 16.0 0.01 0.21 0.12 98 1023.4
20200118172858 47 0 5.0 16.0 0.01 0.21 0.12 98 1023.3
20200118172351 47 0 5.0 13.0 0.01 0.21 0.12 98 1023.1
20200118171844 47 217 7.0 21.0 0.01 0.21 0.12 97 1023.1
20200118171337 47 189 10.0 21.0 0.01 0.21 0.12 97 1022.9
20200118170830 47 208 9.0 21.0 0.00 0.20 0.12 97 1022.9
20200118170323 47 170 13.0 21.0 0.00 0.20 0.12 97 1022.7
20200118165816 47 172 7.0 25.0 0.00 0.20 0.11 96 1022.6
20200118165309 47 197 11.0 25.0 0.00 0.20 0.11 96 1022.5
20200118164803 47 222 15.0 25.0 0.00 0.20 0.11 96 1022.4
20200118164255 47 193 8.0 21.0 0.00 0.20 0.11 96 1022.3
20200118163749 47 200 10.0 21.0 0.00 0.20 0.11 95 1022.2
20200118163241 47 259 13.0 18.0 0.00 0.20 0.11 95 1022.0
20200118162734 47 204 10.0 15.0 0.00 0.20 0.11 94 1022.0
20200118162227 47 208 15.0 28.0 0.00 0.20 0.11 94 1021.8
20200118161720 47 222 21.0 28.0 0.00 0.20 0.11 93 1021.8
20200118161213 48 233 18.0 28.0 0.00 0.20 0.11 93 1021.6
20200118160706 48 207 13.0 26.0 0.00 0.23 0.11 92 1021.6
20200118160159 48 205 15.0 26.0 0.00 0.23 0.11 92 1021.4
20200118155652 48 208 16.0 26.0 0.00 0.23 0.11 92 1021.3
20200118155145 48 172 16.0 23.0 0.00 0.23 0.11 92 1021.2
20200118154638 48 204 13.0 27.0 0.00 0.23 0.11 92 1021.1
20200118154131 48 210 12.0 27.0 0.00 0.23 0.11 93 1020.8
20200118153624 48 203 18.0 27.0 0.00 0.23 0.11 94 1020.8
20200118153118 47 168 15.0 27.0 0.00 0.23 0.11 94 1020.7
20200118152610 47 196 14.0 23.0 0.00 0.23 0.11 95 1020.6
20200118152103 47 190 13.0 19.0 0.00 0.23 0.11 95 1020.5
20200118151556 47 205 10.0 18.0 0.00 0.23 0.11 95 1020.4
20200118151049 47 194 9.0 15.0 0.00 0.23 0.11 95 1020.4
20200118150542 47 198 9.0 20.0 0.00 0.26 0.11 95 1020.4
20200118150035 47 211 10.0 20.0 0.00 0.26 0.11 94 1020.4
20200118145528 47 207 13.0 20.0 0.00 0.26 0.11 94 1020.4
20200118145021 47 166 14.0 20.0 0.00 0.26 0.11 94 1020.2
20200118144514 47 211 8.0 17.0 0.00 0.26 0.11 93 1020.2
20200118144007 47 208 7.0 17.0 0.00 0.26 0.11 93 1020.1
20200118143500 47 191 7.0 17.0 0.00 0.26 0.11 93 1020.0
20200118142953 47 231 11.0 17.0 0.00 0.26 0.11 93 1019.9
20200118142446 46 159 7.0 15.0 0.00 0.26 0.11 93 1019.7
20200118141938 46 205 12.0 15.0 0.00 0.26 0.11 93 1019.8
20200118141432 46 163 14.0 15.0 0.00 0.26 0.11 93 1019.8
20200118140925 46 204 3.0 18.0 0.00 0.26 0.11 93 1019.8
20200118140419 46 207 8.0 18.0 0.00 0.26 0.11 93 1019.8
20200118135910 46 190 4.0 18.0 0.00 0.26 0.11 94 1019.6
20200118135404 46 0 6.0 18.0 0.00 0.26 0.11 94 1019.6
20200118134856 45 173 11.0 14.0 0.00 0.26 0.11 94 1019.7
20200118134350 45 186 10.0 14.0 0.00 0.26 0.11 94 1019.6
20200118133842 45 183 8.0 14.0 0.00 0.26 0.11 94 1019.6
20200118133336 45 193 7.0 14.0 0.00 0.26 0.11 94 1019.6
20200118132828 45 218 9.0 13.0 0.00 0.26 0.11 94 1019.5
20200118132321 45 193 8.0 10.0 0.00 0.26 0.11 94 1019.5
20200118131814 44 169 9.0 10.0 0.00 0.26 0.11 94 1019.5
20200118131308 44 175 8.0 10.0 0.00 0.26 0.11 94 1019.4
20200118130800 44 151 6.0 13.0 0.00 0.27 0.11 94 1019.2
20200118130253 44 170 7.0 13.0 0.00 0.27 0.11 94 1019.2
20200118125746 44 162 9.0 13.0 0.00 0.27 0.11 94 1019.2
20200118125240 44 176 6.0 13.0 0.00 0.27 0.11 94 1019.1
20200118124732 44 165 10.0 10.0 0.00 0.27 0.11 94 1019.1
20200118124225 44 177 4.0 14.0 0.00 0.27 0.11 94 1019.1
20200118123718 44 211 8.0 14.0 0.00 0.27 0.11 94 1019.1
20200118123212 44 173 9.0 14.0 0.00 0.27 0.11 94 1019.1
20200118122704 44 184 7.0 14.0 0.00 0.27 0.11 94 1019.1
20200118122158 44 173 9.0 17.0 0.00 0.27 0.11 94 1018.9
20200118121650 44 126 7.0 17.0 0.00 0.27 0.11 94 1019.0
20200118121143 44 172 3.0 17.0 0.00 0.27 0.11 94 1019.0
20200118120636 44 161 9.0 10.0 0.01 0.31 0.11 94 1018.9
20200118120131 44 126 9.0 16.0 0.01 0.31 0.11 95 1018.9
20200118115622 43 191 5.0 16.0 0.01 0.31 0.11 95 1018.9
20200118115115 43 175 7.0 16.0 0.01 0.31 0.11 95 1018.8
20200118114608 43 183 10.0 16.0 0.01 0.31 0.11 95 1018.9
20200118114101 43 194 4.0 12.0 0.01 0.31 0.11 95 1019.0
20200118113554 43 180 4.0 12.0 0.02 0.31 0.11 94 1019.1
20200118113047 43 175 9.0 12.0 0.02 0.31 0.11 94 1018.8
20200118112540 43 128 4.0 13.0 0.04 0.31 0.11 94 1018.8
20200118112033 43 148 6.0 13.0 0.04 0.31 0.11 94 1018.9
20200118111526 43 112 4.0 13.0 0.05 0.31 0.11 93 1019.1
20200118111019 43 147 10.0 13.0 0.05 0.31 0.11 93 1019.1
20200118110513 43 189 8.0 12.0 0.06 0.26 0.10 93 1019.1
20200118110005 43 109 8.0 16.0 0.06 0.26 0.10 92 1019.1
20200118105458 43 133 5.0 16.0 0.07 0.26 0.10 92 1019.0
20200118104951 43 117 5.0 16.0 0.07 0.26 0.10 92 1018.9
20200118104444 43 142 9.0 16.0 0.07 0.26 0.10 91 1018.8
20200118103938 43 166 4.0 15.0 0.07 0.26 0.10 91 1018.9
20200118103431 43 138 8.0 18.0 0.06 0.26 0.09 90 1018.9
20200118102923 43 138 7.0 18.0 0.06 0.26 0.09 90 1019.1
20200118102416 43 154 8.0 18.0 0.05 0.26 0.08 89 1019.2
20200118101909 44 177 8.0 18.0 0.05 0.26 0.07 89 1019.4
20200118101403 44 142 5.0 15.0 0.04 0.26 0.06 88 1019.4
20200118100855 44 208 8.0 15.0 0.02 0.22 0.06 87 1019.4
20200118100348 44 93 7.0 15.0 0.02 0.22 0.05 86 1019.4
20200118095841 44 166 3.0 9.0 0.01 0.22 0.04 85 1019.4
20200118095334 44 180 6.0 9.0 0.01 0.22 0.03 85 1019.2
20200118094827 44 155 6.0 9.0 0.01 0.22 0.03 85 1019.4
20200118094320 44 145 8.0 11.0 0.01 0.22 0.03 84 1019.2
20200118093813 44 161 6.0 11.0 0.01 0.22 0.03 84 1019.2
20200118093306 45 137 8.0 11.0 0.01 0.22 0.03 84 1019.1
20200118092759 45 149 10.0 10.0 0.00 0.22 0.03 83 1019.1
20200118092252 45 169 9.0 14.0 0.00 0.22 0.03 82 1019.1
20200118091238 45 128 12.0 14.0 0.00 0.22 0.02 81 1019.0
20200118090224 45 149 6.0 16.0 0.00 0.27 0.02 81 1019.1
20200118085718 45 169 8.0 16.0 0.00 0.27 0.02 81 1019.0
20200118085210 45 110 11.0 16.0 0.00 0.27 0.02 81 1019.1
20200118084703 45 144 5.0 12.0 0.00 0.27 0.02 80 1019.2
20200118084156 46 158 10.0 10.0 0.00 0.27 0.02 80 1019.4
20200118083649 46 141 8.0 19.0 0.00 0.27 0.02 79 1019.5
20200118083142 46 168 11.0 19.0 0.00 0.27 0.02 79 1019.4
20200118082635 46 235 12.0 19.0 0.00 0.27 0.02 79 1019.5
20200118082128 46 165 18.0 19.0 0.00 0.27 0.02 79 1019.6
20200118081621 46 159 9.0 17.0 0.00 0.27 0.02 79 1019.6
20200118081114 46 124 10.0 17.0 0.00 0.27 0.02 80 1019.5
20200118080607 46 133 8.0 13.0 0.00 0.32 0.02 80 1019.4
20200118080100 46 187 10.0 12.0 0.00 0.32 0.02 80 1019.5
20200118075553 46 98 9.0 15.0 0.00 0.32 0.02 80 1019.4
20200118075046 46 151 8.0 15.0 0.00 0.32 0.02 81 1019.5
20200118074539 45 180 8.0 15.0 0.00 0.32 0.02 81 1019.5
20200118074032 46 179 11.0 14.0 0.00 0.32 0.02 81 1019.6
20200118073525 46 169 6.0 14.0 0.00 0.32 0.02 81 1019.6
20200118073018 46 138 11.0 21.0 0.00 0.32 0.02 81 1019.5
20200118072512 45 84 10.0 21.0 0.00 0.32 0.02 82 1019.5
20200118072006 45 134 19.0 21.0 0.00 0.32 0.02 82 1019.5
20200118071457 45 126 7.0 21.0 0.00 0.32 0.02 83 1019.6
20200118070950 45 148 6.0 13.0 0.00 0.32 0.02 83 1019.7
20200118070443 45 182 8.0 12.0 0.00 0.32 0.02 84 1019.8
20200118065936 45 127 10.0 15.0 0.00 0.32 0.02 84 1019.8
20200118065429 45 124 8.0 15.0 0.00 0.32 0.02 84 1019.8
20200118064922 45 119 10.0 15.0 0.00 0.32 0.02 85 1019.9
20200118064415 45 140 11.0 15.0 0.00 0.32 0.02 85 1019.9
20200118063908 45 141 1.0 19.0 0.00 0.32 0.02 86 1019.9
20200118063401 45 0 6.0 19.0 0.00 0.32 0.02 86 1019.9
20200118062854 45 190 8.0 19.0 0.00 0.32 0.02 87 1019.8
20200118062347 44 135 10.0 14.0 0.00 0.32 0.02 87 1019.8
20200118061840 44 137 6.0 21.0 0.00 0.32 0.02 88 1019.8
20200118061333 44 152 7.0 21.0 0.00 0.32 0.02 88 1019.9
20200118060827 44 113 9.0 21.0 0.00 0.32 0.02 89 1019.9
20200118060319 44 140 10.0 21.0 0.00 0.32 0.02 89 1019.9
20200118055812 44 113 9.0 12.0 0.00 0.32 0.02 90 1019.9
20200118055305 44 100 7.0 11.0 0.00 0.32 0.02 90 1020.1
20200118054758 44 117 11.0 19.0 0.00 0.32 0.02 91 1020.1
20200118054251 44 172 9.0 19.0 0.00 0.32 0.02 91 1020.0
20200118053744 44 88 9.0 19.0 0.00 0.32 0.02 92 1020.0
20200118053237 44 193 16.0 19.0 0.00 0.32 0.02 92 1020.2
20200118052731 44 130 10.0 16.0 0.00 0.32 0.02 93 1020.0
20200118052223 44 142 6.0 17.0 0.00 0.32 0.02 93 1020.2
20200118051716 44 149 8.0 17.0 0.00 0.32 0.02 94 1020.3
20200118051209 43 149 6.0 17.0 0.00 0.32 0.02 94 1020.4
20200118050702 43 113 13.0 16.0 0.00 0.32 0.02 94 1020.4
20200118050155 43 128 8.0 16.0 0.00 0.32 0.02 95 1020.3
20200118045648 43 128 10.0 16.0 0.00 0.32 0.02 95 1020.4
20200118045140 43 98 9.0 15.0 0.00 0.32 0.02 96 1020.3
20200118044633 43 95 11.0 14.0 0.00 0.32 0.02 96 1020.4
20200118043619 43 105 11.0 15.0 0.00 0.32 0.02 97 1020.4
20200118042605 43 140 7.0 12.0 0.00 0.32 0.02 97 1020.5
20200118042058 42 109 8.0 11.0 0.00 0.32 0.02 97 1020.6
20200118041551 42 86 8.0 16.0 0.00 0.32 0.02 97 1020.7
20200118041044 42 137 7.0 16.0 0.00 0.32 0.02 98 1020.8
20200118040537 42 113 4.0 16.0 0.01 0.32 0.02 98 1020.9
20200118040030 42 106 7.0 16.0 0.01 0.32 0.02 98 1020.9
20200118035524 42 106 5.0 16.0 0.01 0.32 0.02 98 1020.9
20200118035017 42 119 7.0 14.0 0.01 0.32 0.02 98 1020.9
20200118034002 42 137 4.0 14.0 0.01 0.32 0.02 98 1021.0
20200118033455 42 112 10.0 14.0 0.01 0.32 0.02 98 1021.0
20200118032948 42 109 8.0 13.0 0.01 0.32 0.02 99 1021.0
20200118032441 42 130 6.0 13.0 0.01 0.32 0.02 99 1021.1
20200118031934 42 124 7.0 11.0 0.01 0.32 0.02 99 1021.1
20200118031427 42 100 4.0 11.0 0.01 0.32 0.02 99 1021.0
20200118030920 42 110 7.0 11.0 0.01 0.32 0.02 99 1021.0
20200118030413 42 130 3.0 8.0 0.00 0.31 0.02 99 1021.1
20200118025906 42 158 5.0 13.0 0.00 0.31 0.01 99 1021.2
20200118025359 42 79 4.0 13.0 0.00 0.31 0.01 99 1021.3
20200118024852 42 152 9.0 13.0 0.00 0.31 0.01 99 1021.3
20200118024345 42 109 11.0 13.0 0.00 0.31 0.01 99 1021.4
20200118023838 42 105 11.0 15.0 0.00 0.31 0.01 100 1021.4
20200118023331 42 117 10.0 15.0 0.00 0.31 0.01 100 1021.5
20200118022827 42 128 8.0 15.0 0.01 0.31 0.01 100 1021.5
20200118022318 42 119 10.0 12.0 0.01 0.31 0.01 100 1021.5
20200118021810 42 121 8.0 10.0 0.01 0.31 0.01 100 1021.6
20200118021303 42 110 8.0 13.0 0.01 0.31 0.01 100 1021.6
20200118020756 42 105 8.0 13.0 0.01 0.30 0.01 100 1021.7
20200118020249 42 110 7.0 13.0 0.01 0.30 0.01 100 1021.6
20200118015742 42 121 6.0 17.0 0.01 0.30 0.01 100 1021.6
20200118015236 42 116 8.0 17.0 0.01 0.30 0.01 100 1021.8
20200118014728 42 113 9.0 17.0 0.01 0.30 0.01 100 1021.8
20200118014221 42 113 12.0 17.0 0.01 0.30 0.01 100 1021.8
20200118013714 42 105 7.0 13.0 0.01 0.30 0.01 100 1021.9
20200118013207 42 105 7.0 12.0 0.01 0.30 0.01 100 1021.9
20200118012700 42 120 7.0 12.0 0.00 0.30 0.01 100 1022.1
20200118011647 42 106 6.0 9.0 0.00 0.30 0.00 100 1022.1
20200118011139 42 120 7.0 17.0 0.00 0.30 0.00 100 1022.2
20200118010125 42 84 10.0 17.0 0.00 0.30 0.00 100 1022.0
20200118005619 42 114 11.0 17.0 0.01 0.30 0.00 100 1022.1
20200118005111 42 154 7.0 9.0 0.01 0.30 0.00 100 1022.3
20200118004604 42 148 6.0 12.0 0.01 0.30 0.00 100 1022.3
20200118004057 42 112 8.0 12.0 0.01 0.30 0.00 100 1022.3
20200118003550 42 133 3.0 12.0 0.02 0.30 0.00 100 1022.4
20200118003043 42 126 8.0 12.0 0.02 0.30 0.00 100 1022.3
20200118002536 42 124 7.0 12.0 0.02 0.30 0.00 100 1022.4
20200118001522 42 120 6.0 12.0 0.02 0.30 0.00 100 1022.5
20200118001015 42 116 7.0 12.0 0.02 0.30 0.00 100 1022.5
20200118000001 42 121 6.0 11.0 0.02 0.30 0.30 100 1022.7
20200117235454 42 135 6.0 11.0 0.01 0.29 0.29 100 1022.7
20200117234947 42 120 7.0 9.0 0.01 0.29 0.29 100 1022.8
20200117234440 42 124 5.0 8.0 0.01 0.29 0.29 100 1022.5
20200117233933 42 74 2.0 11.0 0.01 0.29 0.29 100 1022.5
20200117233426 42 126 1.0 11.0 0.01 0.28 0.28 100 1022.7
20200117232919 43 100 5.0 11.0 0.01 0.28 0.28 100 1022.7
20200117232412 43 168 9.0 11.0 0.01 0.28 0.28 100 1022.8
20200117231905 43 155 8.0 10.0 0.01 0.28 0.28 100 1022.7
20200117231358 43 114 6.0 12.0 0.01 0.28 0.28 100 1022.7
20200117230851 43 0 8.0 12.0 0.01 0.28 0.28 100 1022.5
20200117230344 42 103 6.0 12.0 0.01 0.28 0.28 100 1022.5
20200117225838 42 109 9.0 11.0 0.02 0.28 0.28 100 1022.5
20200117225330 42 105 7.0 11.0 0.02 0.28 0.28 100 1022.6
20200117224824 42 113 10.0 11.0 0.04 0.28 0.28 100 1022.5
20200117224316 42 130 9.0 11.0 0.04 0.28 0.28 100 1022.6
20200117223809 43 117 5.0 6.0 0.03 0.27 0.27 100 1022.6
20200117223302 43 134 5.0 8.0 0.03 0.27 0.27 100 1022.6
20200117222755 43 117 5.0 8.0 0.03 0.27 0.27 100 1022.7
20200117222248 43 109 3.0 8.0 0.03 0.27 0.27 100 1022.7
20200117221741 43 107 6.0 8.0 0.03 0.27 0.27 100 1022.6
20200117221234 43 151 6.0 7.0 0.03 0.27 0.27 100 1022.7
20200117220727 43 151 2.0 12.0 0.03 0.27 0.27 100 1022.9
20200117220220 43 161 3.0 12.0 0.03 0.27 0.27 100 1022.7
20200117215713 43 112 3.0 12.0 0.02 0.27 0.27 100 1022.8
20200117215206 43 142 8.0 12.0 0.02 0.27 0.27 100 1022.8
20200117214659 43 183 8.0 9.0 0.00 0.26 0.26 100 1023.2
20200117214152 43 109 3.0 8.0 0.00 0.24 0.24 100 1023.3
20200117213645 43 179 4.0 7.0 0.00 0.24 0.24 100 1023.1
20200117213138 43 134 3.0 7.0 0.00 0.24 0.24 100 1023.1
20200117212124 43 147 4.0 5.0 0.00 0.24 0.24 100 1022.8
20200117211617 42 0 0.0 0.0 0.01 0.24 0.24 100 1022.8
20200117211110 42 0 0.0 6.0 0.01 0.24 0.24 100 1023.1
20200117210603 42 0 0.0 6.0 0.01 0.24 0.24 100 1023.2
20200117210056 42 116 2.0 6.0 0.01 0.24 0.24 100 1023.3
20200117205549 42 142 4.0 6.0 0.01 0.24 0.24 100 1023.4
20200117205043 42 131 2.0 6.0 0.01 0.24 0.24 100 1023.4
20200117204535 42 114 2.0 6.0 0.01 0.24 0.24 100 1023.4
20200117204028 42 0 0.0 5.0 0.01 0.24 0.24 100 1023.4
20200117203522 42 0 0.0 5.0 0.01 0.24 0.24 100 1023.5
20200117203014 42 0 0.0 5.0 0.01 0.24 0.24 100 1023.5
20200117202507 42 0 0.0 0.0 0.03 0.24 0.24 100 1023.5
20200117202000 42 0 0.0 7.0 0.03 0.24 0.24 100 1023.6
20200117200946 42 0 0.0 7.0 0.02 0.23 0.23 100 1023.2
20200117200439 42 135 4.0 7.0 0.02 0.23 0.23 100 1023.2
20200117195934 42 142 4.0 7.0 0.02 0.23 0.23 100 1023.3
20200117195425 42 0 0.0 7.0 0.02 0.23 0.23 100 1023.3
20200117194918 42 149 3.0 7.0 0.02 0.23 0.23 100 1023.3
20200117194411 42 0 0.0 3.0 0.02 0.23 0.23 100 1023.4
20200117193904 42 0 0.0 6.0 0.02 0.23 0.23 100 1023.4
20200117193357 42 0 0.0 6.0 0.02 0.23 0.23 100 1023.4
20200117192853 42 161 2.0 6.0 0.00 0.23 0.23 100 1023.5
20200117192344 42 155 3.0 6.0 0.00 0.23 0.23 100 1023.5
20200117191836 42 109 2.0 6.0 0.00 0.21 0.21 100 1023.4
20200117191330 42 152 5.0 6.0 0.00 0.21 0.21 100 1023.5
20200117190822 42 71 3.0 6.0 0.00 0.21 0.21 100 1023.4
20200117190315 42 133 4.0 6.0 0.00 0.21 0.21 100 1023.4
20200117185808 42 107 5.0 9.0 0.00 0.21 0.21 100 1023.3
20200117185301 41 78 5.0 9.0 0.00 0.21 0.21 100 1023.4
20200117184754 41 103 6.0 9.0 0.00 0.21 0.21 100 1023.3
20200117184247 41 126 4.0 9.0 0.00 0.21 0.21 100 1023.4
20200117183739 41 105 5.0 9.0 0.00 0.21 0.21 100 1023.3
20200117183232 41 91 5.0 9.0 0.00 0.21 0.21 100 1023.2
20200117182727 40 124 4.0 9.0 0.00 0.21 0.21 100 1023.2